Simultaneous Nadir Overpasses (SNOs) Predictions

Prediction of SNOs between FY3D and LANDSAT-8 Satellite Orbit:

Table of predicted SNOs for the next 14.0 days since TLE Epoch: 9/7/2019
Index Date (FY3D) Time (FY3D) Lat,Lon (FY3D) SZA (FY3D ) Date (LANDSAT-8) Time (LANDSAT-8) Lat,Lon (LANDSAT-8) SZA (LANDSAT-8 ) Distance(km) Time Diff (sec)
1 09/08/2019 17:46:21 -70.47, 90.21 115.22 09/08/2019 17:47:26 -70.50, 90.22 115.20 3.04 65
2 09/08/2019 18:37:06 70.40,-102.37 64.73 09/08/2019 18:36:53 70.39,-102.29 64.72 3.31 13
3 09/08/2019 19:27:40 -69.93, 65.67 115.74 09/08/2019 19:26:28 -70.01, 64.79 115.65 34.23 72
4 09/11/2019 10:02:48 -70.50,-153.94 114.18 09/11/2019 10:03:56 -70.47,-153.93 114.21 2.42 68
5 09/11/2019 10:53:32 70.38, 13.55 65.72 09/11/2019 10:53:23 70.37, 13.56 65.70 1.34 9
6 09/11/2019 11:44:08 -70.02,-178.57 114.65 09/11/2019 11:42:56 -70.10,-179.20 114.55 25.64 72
7 09/14/2019 02:19:14 -70.47, -38.02 113.19 09/14/2019 02:20:26 -70.45, -38.08 113.21 3.10 72
8 09/14/2019 03:09:58 70.36, 129.47 66.71 09/14/2019 03:09:53 70.34, 129.40 66.70 3.05 5
9 09/14/2019 04:00:37 -70.15, -62.89 113.49 09/14/2019 03:59:24 -70.19, -63.19 113.45 12.22 73
10 09/16/2019 18:35:42 -70.56, 77.73 112.07 09/16/2019 18:36:54 -70.54, 77.93 112.10 7.40 72
11 09/16/2019 19:26:25 70.39,-114.70 67.78 09/16/2019 19:26:22 70.37,-114.67 67.76 2.09 3
12 09/16/2019 20:17:05 -70.23, 52.87 112.38 09/16/2019 20:15:52 -70.27, 52.81 112.33 4.95 73
13 09/19/2019 10:52:10 -70.69,-166.60 110.90 09/19/2019 10:53:21 -70.63,-166.06 110.98 21.14 71
14 09/19/2019 11:42:50 70.37, 1.22 68.79 09/19/2019 11:42:51 70.35, 1.18 68.77 3.05 1
15 09/19/2019 12:33:31 -70.27, 168.71 111.31 09/19/2019 12:32:21 -70.25, 168.66 111.32 2.28 70




NCC Satellite Simultaneous Nadir Overpasses (SNOs) Prediction Service
